Location: Abraham Lincoln Continuation High School
(33.9711°N, 117.3662°W)
Time: 05:00:41
(UTC+00:00)

Okean 2 - Pass Details

Date: 21 September 2020
Orbit: 559 x 577 km, 82.5° (Epoch: 25 October)

Event Time Altitude Azimuth Distance (km) Brightness Sun altitude
Rises 02:34:38 0° 350° (N) 2,792 7.2 -10.5°
Reaches altitude 10° 02:36:51 10° 349° (NNW) 1,888 6.3 -10.9°
Maximum altitude 02:40:59 71° 265° (W) 609 3.7 -11.8°
Drops below altitude 10° 02:45:05 10° 182° (S) 1,865 5.9 -12.6°
Sets 02:47:15 0° 180° (S) 2,755 6.8 -13.0°
